DLH249 LRBC-LROP

Flight info

Callsign DLH249
Flight time 0h 33m
Altitude 18000
Route KENUX DCT DENAK
Aircraft A320/M-SDE3FGHIRWY/LB1

Departure

Time 2026-04-23 17:49
Airport Bacău George Enescu International Airport (LRBC)

Arrival

Time 2026-04-23 18:23
Airport Bucharest Henri Coandă International Airport (LROP)
Time Latitude Longitude Altitude Speed Heading
2026-04-23 17:32 46.53262 26.90959 625 ft 0 kts 76°
2026-04-23 17:42 46.53258 26.90936 628 ft 4 kts 94°
2026-04-23 17:42 46.53267 26.90908 618 ft 4 kts 157°
2026-04-23 17:43 46.53273 26.90904 621 ft 0 kts 166°
2026-04-23 17:45 46.53228 26.90917 616 ft 15 kts 170°
2026-04-23 17:45 46.53093 26.91003 615 ft 27 kts 155°
2026-04-23 17:46 46.52616 26.91181 613 ft 39 kts 165°
2026-04-23 17:46 46.52353 26.91287 609 ft 40 kts 164°
2026-04-23 17:46 46.52084 26.91398 602 ft 41 kts 163°
2026-04-23 17:47 46.51810 26.91509 599 ft 41 kts 166°
2026-04-23 17:47 46.51561 26.91600 598 ft 25 kts 166°
2026-04-23 17:47 46.51199 26.91736 594 ft 27 kts 180°
2026-04-23 17:48 46.51131 26.91528 593 ft 26 kts 281°
2026-04-23 17:48 46.51205 26.91401 594 ft 2 kts 343°
2026-04-23 17:49 46.51219 26.91395 594 ft 19 kts 343°
2026-04-23 17:49 46.51601 26.91246 599 ft 92 kts 345°
2026-04-23 17:49 46.52410 26.90934 625 ft 145 kts 347°
2026-04-23 17:49 46.53373 26.90578 1296 ft 137 kts 346°
2026-04-23 17:50 46.54311 26.90214 1964 ft 143 kts 343°
2026-04-23 17:50 46.55889 26.88127 2695 ft 200 kts 279°
2026-04-23 17:50 46.55439 26.86032 3084 ft 244 kts 238°
2026-04-23 17:51 46.53972 26.84511 3628 ft 277 kts 206°
2026-04-23 17:51 46.52068 26.83779 4547 ft 287 kts 193°
2026-04-23 17:51 46.48061 26.82951 6445 ft 293 kts 192°
2026-04-23 17:52 46.46029 26.82481 7287 ft 298 kts 194°
2026-04-23 17:52 46.41922 26.81257 9057 ft 305 kts 198°
2026-04-23 17:52 46.39841 26.80546 9918 ft 309 kts 198°
2026-04-23 17:53 46.35408 26.78958 10671 ft 351 kts 198°
2026-04-23 17:53 46.33007 26.78094 11330 ft 359 kts 198°
2026-04-23 17:53 46.30598 26.77243 11997 ft 342 kts 197°
2026-04-23 17:54 46.28409 26.76513 12657 ft 303 kts 195°
2026-04-23 17:54 46.26405 26.75950 13384 ft 288 kts 193°
2026-04-23 17:54 46.22431 26.74943 14720 ft 293 kts 193°
2026-04-23 17:55 46.18347 26.73905 15794 ft 306 kts 193°
2026-04-23 17:55 46.16244 26.73364 15844 ft 307 kts 193°
2026-04-23 17:55 46.14138 26.72820 15843 ft 307 kts 193°
2026-04-23 17:56 46.12032 26.72271 15862 ft 307 kts 193°
2026-04-23 17:56 46.07832 26.71170 15836 ft 306 kts 193°
2026-04-23 17:56 46.05736 26.70617 15857 ft 306 kts 193°
2026-04-23 17:57 46.03640 26.70067 15871 ft 306 kts 192°
2026-04-23 17:57 46.01548 26.69522 15849 ft 304 kts 192°
2026-04-23 17:57 45.97387 26.68441 15856 ft 304 kts 192°
2026-04-23 17:58 45.95305 26.67898 15852 ft 304 kts 192°
2026-04-23 17:58 45.93250 26.67361 15862 ft 304 kts 192°
2026-04-23 17:58 45.91167 26.66819 15851 ft 304 kts 192°
2026-04-23 17:58 45.89084 26.66279 15849 ft 304 kts 192°
2026-04-23 17:59 45.87007 26.65740 15850 ft 303 kts 192°
2026-04-23 17:59 45.84939 26.65203 15859 ft 301 kts 192°
2026-04-23 17:59 45.82872 26.64667 15861 ft 301 kts 192°
2026-04-23 17:59 45.80815 26.64133 15862 ft 300 kts 192°
2026-04-23 18:00 45.78752 26.63598 15864 ft 301 kts 192°
2026-04-23 18:00 45.76689 26.63064 15867 ft 302 kts 192°
2026-04-23 18:00 45.74624 26.62531 15865 ft 302 kts 192°
2026-04-23 18:00 45.72561 26.61999 15863 ft 300 kts 192°
2026-04-23 18:01 45.70500 26.61469 15867 ft 301 kts 192°
2026-04-23 18:01 45.68441 26.60940 15869 ft 300 kts 192°
2026-04-23 18:01 45.66414 26.60420 15863 ft 300 kts 192°
2026-04-23 18:01 45.64360 26.59893 15862 ft 300 kts 192°
2026-04-23 18:02 45.62975 26.59539 15865 ft 301 kts 192°
2026-04-23 18:02 45.60244 26.58838 15867 ft 301 kts 192°
2026-04-23 18:02 45.58187 26.58307 15866 ft 301 kts 192°
2026-04-23 18:02 45.56124 26.57775 15864 ft 301 kts 192°
2026-04-23 18:03 45.54059 26.57242 15868 ft 302 kts 192°
2026-04-23 18:03 45.51994 26.56707 15866 ft 301 kts 192°
2026-04-23 18:03 45.49936 26.56175 15866 ft 301 kts 192°
2026-04-23 18:03 45.47875 26.55645 15869 ft 301 kts 192°
2026-04-23 18:04 45.46507 26.55297 15848 ft 300 kts 191°
2026-04-23 18:04 45.44468 26.54780 15888 ft 297 kts 192°
2026-04-23 18:04 45.42440 26.54262 15867 ft 299 kts 192°
2026-04-23 18:04 45.40294 26.53711 15873 ft 328 kts 192°
2026-04-23 18:05 45.37990 26.53120 15865 ft 341 kts 192°
2026-04-23 18:05 45.35635 26.52521 15867 ft 345 kts 192°
2026-04-23 18:05 45.33271 26.51921 15864 ft 345 kts 192°
2026-04-23 18:05 45.30904 26.51321 15864 ft 345 kts 192°
2026-04-23 18:06 45.28536 26.50720 15869 ft 345 kts 192°
2026-04-23 18:06 45.26173 26.50120 15857 ft 345 kts 192°
2026-04-23 18:06 45.23820 26.49523 15870 ft 343 kts 192°
2026-04-23 18:06 45.21476 26.48930 15868 ft 342 kts 192°
2026-04-23 18:07 45.19132 26.48335 15868 ft 342 kts 192°
2026-04-23 18:07 45.16787 26.47742 15866 ft 342 kts 192°
2026-04-23 18:07 45.14447 26.47150 15868 ft 342 kts 192°
2026-04-23 18:07 45.12107 26.46557 15871 ft 342 kts 192°
2026-04-23 18:08 45.09799 26.45974 15874 ft 342 kts 192°
2026-04-23 18:08 45.07457 26.45387 15874 ft 342 kts 192°
2026-04-23 18:08 45.05123 26.44800 15701 ft 339 kts 192°
2026-04-23 18:08 45.02772 26.44296 15383 ft 337 kts 185°
2026-04-23 18:09 45.00472 26.44360 15087 ft 335 kts 174°
2026-04-23 18:09 44.98171 26.45056 14514 ft 341 kts 161°
2026-04-23 18:09 44.95980 26.46379 14038 ft 344 kts 154°
2026-04-23 18:09 44.93817 26.47837 13661 ft 343 kts 156°
2026-04-23 18:10 44.91669 26.49273 13310 ft 340 kts 156°
2026-04-23 18:10 44.89536 26.50691 12960 ft 337 kts 156°
2026-04-23 18:10 44.87422 26.52094 12594 ft 334 kts 155°
2026-04-23 18:10 44.85353 26.53464 12205 ft 323 kts 155°
2026-04-23 18:11 44.83357 26.54781 11850 ft 311 kts 155°
2026-04-23 18:11 44.81431 26.56055 11472 ft 300 kts 155°
2026-04-23 18:11 44.79572 26.57287 11115 ft 290 kts 155°
2026-04-23 18:11 44.77769 26.58481 10759 ft 282 kts 155°
2026-04-23 18:12 44.76019 26.59636 10414 ft 274 kts 155°
2026-04-23 18:12 44.74320 26.60757 10063 ft 267 kts 155°
2026-04-23 18:12 44.72655 26.61855 9738 ft 264 kts 155°
2026-04-23 18:12 44.70975 26.62942 9353 ft 266 kts 159°
2026-04-23 18:13 44.69186 26.63657 8924 ft 269 kts 173°
2026-04-23 18:13 44.67318 26.63930 8520 ft 272 kts 177°
2026-04-23 18:13 44.65426 26.64180 8104 ft 275 kts 177°
2026-04-23 18:13 44.63533 26.64150 7675 ft 268 kts 197°
2026-04-23 18:14 44.61894 26.63103 7267 ft 252 kts 224°
2026-04-23 18:14 44.60777 26.61332 6864 ft 236 kts 247°
2026-04-23 18:14 44.60265 26.59234 6537 ft 219 kts 267°
2026-04-23 18:14 44.60119 26.57185 6234 ft 211 kts 271°
2026-04-23 18:15 44.60395 26.55232 5856 ft 198 kts 297°
2026-04-23 18:15 44.60811 26.53407 5556 ft 202 kts 283°
2026-04-23 18:15 44.60872 26.51428 5245 ft 206 kts 268°
2026-04-23 18:15 44.60704 26.49438 4888 ft 204 kts 267°
2026-04-23 18:16 44.60546 26.47478 4529 ft 200 kts 268°
2026-04-23 18:16 44.60403 26.45546 4174 ft 198 kts 269°
2026-04-23 18:16 44.60265 26.43665 4010 ft 184 kts 269°
2026-04-23 18:17 44.60022 26.40300 3992 ft 170 kts 269°
2026-04-23 18:17 44.59904 26.38680 3882 ft 160 kts 270°
2026-04-23 18:17 44.59795 26.37201 3719 ft 147 kts 270°
2026-04-23 18:17 44.59694 26.35819 3535 ft 140 kts 270°
2026-04-23 18:18 44.59597 26.34470 3356 ft 139 kts 271°
2026-04-23 18:18 44.59499 26.33128 3175 ft 138 kts 271°
2026-04-23 18:18 44.59402 26.31792 2989 ft 138 kts 270°
2026-04-23 18:18 44.59304 26.30452 2802 ft 138 kts 270°
2026-04-23 18:19 44.59205 26.29118 2624 ft 137 kts 270°
2026-04-23 18:19 44.59107 26.27785 2439 ft 137 kts 270°
2026-04-23 18:19 44.59010 26.26471 2258 ft 137 kts 270°
2026-04-23 18:19 44.58912 26.25140 2071 ft 137 kts 270°
2026-04-23 18:20 44.58814 26.23811 1892 ft 137 kts 270°
2026-04-23 18:20 44.58715 26.22482 1709 ft 137 kts 270°
2026-04-23 18:20 44.58617 26.21153 1523 ft 137 kts 270°
2026-04-23 18:20 44.58517 26.19817 1335 ft 138 kts 269°
2026-04-23 18:21 44.58417 26.18474 1148 ft 139 kts 268°
2026-04-23 18:21 44.58316 26.17118 955 ft 141 kts 266°
2026-04-23 18:21 44.58213 26.15739 774 ft 143 kts 264°
2026-04-23 18:21 44.58109 26.14352 590 ft 144 kts 265°
2026-04-23 18:22 44.58011 26.12954 431 ft 144 kts 264°
2026-04-23 18:22 44.57911 26.11632 317 ft 127 kts 264°
2026-04-23 18:22 44.57826 26.10592 314 ft 84 kts 263°
2026-04-23 18:22 44.57779 26.09945 318 ft 54 kts 264°
2026-04-23 18:23 44.57753 26.09617 317 ft 49 kts 263°
2026-04-23 18:23 44.57679 26.08656 322 ft 37 kts 264°
2026-04-23 18:24 44.57545 26.08461 321 ft 6 kts 182°
2026-04-23 18:24 44.57498 26.08464 321 ft 12 kts 174°
2026-04-23 18:24 44.57350 26.08485 320 ft 25 kts 173°
2026-04-23 18:25 44.57221 26.08345 316 ft 14 kts 259°
2026-04-23 18:25 44.57201 26.08202 318 ft 16 kts 262°
2026-04-23 18:25 44.57189 26.08035 318 ft 16 kts 264°
2026-04-23 18:25 44.57172 26.07945 316 ft 9 kts 219°
2026-04-23 18:26 44.57113 26.07946 316 ft 6 kts 172°
2026-04-23 18:26 44.57109 26.07947 316 ft 0 kts 171°
2026-04-23 18:26 44.57108 26.07947 316 ft 0 kts 171°